Home   Weather   Addis Ababa   Past weeks
Flag for Ethiopia

Past Weather in Addis Ababa, Ethiopia — Yesterday and Last 2 Weeks

Now
57 °F

Passing clouds.


Feels Like: 57 °F
Forecast: 83 / 53 °F
Wind: 5 mph from East

Location: Addis Ababa Airport

Current Time: Mar 24, 2019 at 6:26:29 am

Latest Report: Mar 24, 2019 at 6:00 am


Visibility: N/A

Pressure: 30.24 "Hg (22.85 "Hg at 2354m altitude)

Humidity: 59%

Dew Point: 43 °F

Location of Addis AbabaLocation

Past Weather in Addis Ababa — Graph

°F

Addis Ababa Temperature Yesterday

Maximum temperature yesterday: 82 °F (at 4:00 pm)
Minimum temperature yesterday: 63 °F (at 5:00 am)
Average temperature yesterday: 73 °F

High & Low Weather Summary for the Past Weeks

 TemperatureHumidityPressure
High82 °F (Mar 23, 4:00 pm)94% (Mar 9, 4:00 am)30.39 "Hg (Mar 9, 4:00 am)
Low55 °F (Mar 9, 4:00 am)17% (Mar 11, 4:00 pm)30.21 "Hg (Mar 22, 3:00 pm)
Average68 °F47%30.31 "Hg
* Reported Mar 9 4:00 am — Mar 24 4:00 am, Addis Ababa. Weather by CustomWeather, © 2019

Note: Actual official high and low records may vary slightly from our data, if they occured in-between our weather recording intervals... More about our weather records

Advertising

Addis Ababa Weather History for the Previous 24 Hours

Scroll right to see more
 ConditionsComfort  
Time TempWeatherWind HumidityBarometerVisibility
4:00 am
Sun, Mar 24
59 °FPassing clouds.5 mph51%30.24 "HgN/A
3:00 am61 °FPassing clouds.7 mph45%30.24 "HgN/A
2:00 am61 °FPassing clouds.5 mph45%30.24 "HgN/A
10:00 pm
Sat, Mar 23
66 °FPassing clouds.5 mph35%30.30 "HgN/A
9:00 pm70 °FPassing clouds.7 mph31%30.27 "HgN/A
8:00 pm70 °FPassing clouds.9 mph29%30.27 "HgN/A
7:00 pm72 °FPassing clouds.12 mph27%30.27 "HgN/A
5:00 pm79 °FPassing clouds.15 mph20%30.21 "HgN/A
4:00 pm82 °FPassing clouds.3 mph17%30.21 "HgN/A
3:00 pm81 °FPassing clouds.14 mph23%30.21 "HgN/A
2:00 pm79 °FPassing clouds.9 mph28%30.24 "HgN/A
1:00 pm79 °FPassing clouds.9 mph28%30.27 "HgN/A
12:00 pm75 °FPassing clouds.7 mph34%30.30 "HgN/A
11:00 am75 °FPassing clouds.9 mph34%30.33 "HgN/A
10:00 am72 °FPassing clouds.12 mph44%30.33 "HgN/A
9:00 am70 °FPassing clouds.9 mph46%30.33 "HgN/A
8:00 am66 °FSmoke.7 mph52%30.30 "HgN/A
Weather by CustomWeather, © 2019

See weather overview